2023/09/13 00:00:00, 5.0,20.2
2023/09/13 00:10:00, 4.8,19.9
2023/09/13 00:20:00, 4.7,20.0
2023/09/13 00:30:00, 4.5,19.7
2023/09/13 00:40:00, 4.2,20.0
2023/09/13 00:50:00, 4.0,19.8
2023/09/13 01:00:00, 3.8,19.7
2023/09/13 01:10:00, 3.6,19.8
2023/09/13 01:20:00, 3.5,19.7
2023/09/13 01:30:00, 3.5,19.8
2023/09/13 01:40:00, 3.5,19.4
2023/09/13 01:50:00, 3.6,19.6
2023/09/13 02:00:00, 3.7,19.8
2023/09/13 02:10:00, 3.8,19.6
2023/09/13 02:20:00, 3.9,19.5
2023/09/13 02:30:00, 4.1,19.2
2023/09/13 02:40:00, 4.4,19.4
2023/09/13 02:50:00, 4.6,19.7
2023/09/13 03:00:00, 5.0,19.6
2023/09/13 03:10:00, 6.2,19.5
2023/09/13 03:20:00, 8.1,19.8
2023/09/13 03:30:00, 9.1,19.4
2023/09/13 03:40:00, 8.8,19.5
2023/09/13 03:50:00, 0.2,19.6
2023/09/13 04:00:00, 0.2,19.6
2023/09/13 04:10:00, 0.2,19.4
2023/09/13 04:20:00, 0.2,19.5
2023/09/13 04:30:00, 5.9,19.3
2023/09/13 04:40:00, 9.0,19.3
2023/09/13 04:50:00, 7.8,19.1
2023/09/13 05:00:00, 7.3,19.0
2023/09/13 05:10:00, 7.0,19.2
2023/09/13 05:20:00, 7.3,19.1
2023/09/13 05:30:00, 7.8,19.1
2023/09/13 05:40:00, 8.4,19.3
2023/09/13 05:50:00, 8.9,19.5
2023/09/13 06:00:00, 8.2,19.3
2023/09/13 06:10:00, 7.3,19.5
2023/09/13 06:20:00, 6.4,19.7
2023/09/13 06:30:00, 5.9,20.2
2023/09/13 06:40:00, 5.9,20.8
2023/09/13 06:50:00, 6.3,21.5
2023/09/13 07:00:00, 6.9,22.1
2023/09/13 07:10:00, 7.3,23.0
2023/09/13 07:20:00, 6.5,26.3
2023/09/13 07:30:00, 5.3,27.5
2023/09/13 07:40:00, 4.9,28.3
2023/09/13 07:50:00, 5.3,29.7
2023/09/13 08:00:00, 5.5,30.0
2023/09/13 08:10:00, 5.7,30.3
2023/09/13 08:20:00, 5.1,31.4
2023/09/13 08:30:00, 4.4,31.9
2023/09/13 08:40:00, 4.6,31.4
2023/09/13 08:50:00, 5.0,32.1
2023/09/13 09:00:00, 4.9,32.0
2023/09/13 09:10:00, 4.5,32.3
2023/09/13 09:20:00, 4.3,32.6
2023/09/13 09:30:00, 4.4,32.1
2023/09/13 09:40:00, 4.8,31.4
2023/09/13 09:50:00, 4.7,31.0
2023/09/13 10:00:00, 4.6,31.1
2023/09/13 10:10:00, 4.8,31.8
2023/09/13 10:20:00, 5.2,32.0
2023/09/13 10:30:00, 4.9,31.1
2023/09/13 10:40:00, 4.8,30.6
2023/09/13 10:50:00, 5.1,31.3
2023/09/13 11:00:00, 5.3,30.8
2023/09/13 11:10:00, 5.1,32.1
2023/09/13 11:20:00, 5.0,32.3
2023/09/13 11:30:00, 4.9,31.8
2023/09/13 11:40:00, 4.9,32.2
2023/09/13 11:50:00, 5.0,32.6
2023/09/13 12:00:00, 5.1,32.7
2023/09/13 12:10:00, 5.1,32.6
2023/09/13 12:20:00, 5.3,33.2
2023/09/13 12:30:00, 5.4,33.3
2023/09/13 12:40:00, 5.3,32.8
2023/09/13 12:50:00, 5.1,32.2
2023/09/13 13:00:00, 4.7,31.3
2023/09/13 13:10:00, 4.7,31.1
2023/09/13 13:20:00, 4.9,31.1
2023/09/13 13:30:00, 4.7,30.5
2023/09/13 13:40:00, 4.5,29.8
2023/09/13 13:50:00, 4.6,29.7
2023/09/13 14:00:00, 4.6,29.3
2023/09/13 14:10:00, 4.8,29.2
2023/09/13 14:20:00, 4.7,29.4
2023/09/13 14:30:00, 4.8,30.2
2023/09/13 14:40:00, 4.9,30.2
2023/09/13 14:50:00, 4.8,30.4
2023/09/13 15:00:00, 4.7,30.2
2023/09/13 15:10:00, 4.6,32.0
2023/09/13 15:20:00, 4.4,30.7
2023/09/13 15:30:00, 4.4,30.0
2023/09/13 15:40:00, 4.4,30.5
2023/09/13 15:50:00, 4.2,32.1
2023/09/13 16:00:00, 4.2,30.7
2023/09/13 16:10:00, 4.1,29.7
2023/09/13 16:20:00, 4.1,29.3
2023/09/13 16:30:00, 4.0,29.2
2023/09/13 16:40:00, 4.0,28.7
2023/09/13 16:50:00, 3.8,28.5
2023/09/13 17:00:00, 3.7,28.5
2023/09/13 17:10:00, 3.7,32.9
2023/09/13 17:20:00, 3.8,28.7
2023/09/13 17:30:00, 3.9,27.5
2023/09/13 17:40:00, 4.1,26.7
2023/09/13 17:50:00, 4.3,26.2
2023/09/13 18:00:00, 4.4,25.7
2023/09/13 18:10:00, 4.0,25.5
2023/09/13 18:20:00, 1.5,25.2
2023/09/13 18:30:00, 0.3,25.0
2023/09/13 18:40:00, 0.3,24.6
2023/09/13 18:50:00, 0.3,24.3
2023/09/13 19:00:00, 0.4,24.3
2023/09/13 19:10:00, 0.4,24.0
2023/09/13 19:20:00, 0.4,23.7
2023/09/13 19:30:00, 0.5,23.6
2023/09/13 19:40:00, 0.6,23.6
2023/09/13 19:50:00, 0.7,23.4
2023/09/13 20:00:00, 1.2,23.0
2023/09/13 20:10:00, 2.5,22.9
2023/09/13 20:20:00, 2.9,22.6
2023/09/13 20:30:00, 2.2,22.8
2023/09/13 20:40:00, 4.8,22.6
2023/09/13 20:50:00, 4.8,22.7
2023/09/13 21:00:00, 4.8,22.3
2023/09/13 21:10:00, 4.9,22.3
2023/09/13 21:20:00, 4.9,22.3
2023/09/13 21:30:00, 4.7,22.2
2023/09/13 21:40:00, 4.4,22.3
2023/09/13 21:50:00, 1.9,22.4
2023/09/13 22:00:00, 0.5,22.2
2023/09/13 22:10:00, 0.6,22.2
2023/09/13 22:20:00, 1.2,21.9
2023/09/13 22:30:00, 1.1,21.9
2023/09/13 22:40:00, 0.6,21.9
2023/09/13 22:50:00, 0.5,21.7
2023/09/13 23:00:00, 0.9,21.4
2023/09/13 23:10:00, 3.7,22.7
2023/09/13 23:20:00, 5.1,22.1
2023/09/13 23:30:00, 5.2,22.3
2023/09/13 23:40:00, 5.3,22.1
2023/09/13 23:50:00, 5.7,22.1
